Bonaire, Netherlands

11:18 PM AST on July 20, 2017 (GMT -0400)
Flamingo

Weather History for TNCB - June, 2012

Change the Weather History Date:

Sunday, June 10, 2012

  Actual Average Record
Temperature  
Mean Temperature 83 °F -  
Max Temperature 87 °F 87 °F 91 °F (2005)
Min Temperature 79 °F 81 °F 78 °F (2015)
Cooling Degree Days 18    
Growing Degree Days 33 (Base 50)    
Moisture  
Dew Point 75 °F    
Average Humidity 75    
Maximum Humidity 84    
Minimum Humidity 62    
Precipitation  
Precipitation 0.00 in - - ()
Sea Level Pressure  
Sea Level Pressure 29.91 in    
Wind  
Wind Speed 10 mph ()    
Max Wind Speed 23 mph    
Max Gust Speed -    
Visibility 8.0 miles    
Events      
Averages and records for this station are not official NWS values.
T = Trace of Precipitation, MM = Missing Value Source: Averaged Metar Reports

Daily Weather History Graph

Daily Weather History Graph

Search for Another Location

Airport or City:

Trip Planner

Search our weather history database for the weather conditions in past years. The results will help you decide how hot, cold, wet, or windy it might be!

Date:

Astronomy

Jun. 10, 2012 Rise Set
Actual Time 6:07 AM AST 6:57 PM AST
Civil Twilight 5:44 AM AST 7:20 PM AST
Nautical Twilight 5:17 AM AST 7:48 PM AST
Astronomical Twilight 4:49 AM AST 8:16 PM AST
Moon No Moon Rise 11:55 AM AST (6/10)
Length of Visible Light 13h 36m
Length of Day
12h 49m
Waning Gibbous, 58% of the Moon is Illuminated
Jun 10
Waning Gibbous
Jun 11
Last Quarter
Jun 19
New
Jun 26
First Quarter
Jul 3
Full

Hourly Weather History & Observations

Time (AST) Temp. Heat Index Dew Point Humidity Pressure Visibility Wind Dir Wind Speed Gust Speed Precip Events Conditions
12:00 AM 80.6 °F 85.4 °F 73.4 °F 79% 29.92 in - Calm Calm - N/A   Unknown
1:00 AM 80.6 °F 86.2 °F 75.2 °F 84% 29.92 in - Calm Calm - N/A   Unknown
2:00 AM 80 °F - 74 °F 77%  in - Calm Calm - -   Clear
2:00 AM 80.6 °F 85.4 °F 73.4 °F 79% 29.92 in - North - - N/A   Unknown
3:00 AM 80.6 °F 86.2 °F 75.2 °F 84% 29.89 in - North - - N/A   Unknown
4:00 AM 80.6 °F 86.2 °F 75.2 °F 84% 29.89 in - North - - N/A   Unknown
5:00 AM 78.8 °F - 73.4 °F 83% 29.89 in - North - - N/A   Unknown
6:00 AM 80.6 °F 86.2 °F 75.2 °F 84% 29.89 in - North - - N/A   Unknown
7:00 AM 82.4 °F 89.5 °F 75.2 °F 79% 29.92 in - North - - N/A   Unknown
8:00 AM 84 °F - 76 °F 72%  in - Calm Calm - -   Clear
8:00 AM 84.2 °F 94.1 °F 77.0 °F 79% 29.92 in - North - - N/A   Unknown
9:00 AM 86.0 °F 96.9 °F 77.0 °F 74% 29.95 in 6.2 mi East 19.6 mph - N/A   Scattered Clouds
10:00 AM 86.0 °F 96.9 °F 77.0 °F 74% 29.95 in - North - - N/A   Unknown
11:00 AM 86 °F - 76 °F 65% 29.97 in 16 mi East 20.7 mph - -   Partly Cloudy
11:00 AM 86.0 °F 96.9 °F 77.0 °F 74% 29.95 in 6.2 mi East 20.7 mph - N/A   Scattered Clouds
12:00 PM 87.8 °F 99.7 °F 77.0 °F 70% 29.95 in 6.2 mi East 20.7 mph - N/A   Scattered Clouds
1:00 PM 87.8 °F 97.6 °F 75.2 °F 66% 29.92 in 6.2 mi East 20.7 mph - N/A   Scattered Clouds
2:00 PM 87 °F - 76 °F 62% 29.92 in 16 mi East 21.9 mph - -   Partly Cloudy
2:00 PM 87.8 °F 97.6 °F 75.2 °F 66% 29.89 in 6.2 mi East 21.9 mph - N/A   Scattered Clouds
3:00 PM 87.8 °F 97.6 °F 75.2 °F 66% 29.89 in 6.2 mi North - - N/A   Scattered Clouds
4:00 PM 86.0 °F 96.9 °F 77.0 °F 74% 29.86 in 6.2 mi North - - N/A   Scattered Clouds
5:00 PM 86 °F - 76 °F 65%  in 6 mi East 23.0 mph - -   Clear
5:00 PM 86.0 °F 96.9 °F 77.0 °F 74% 29.86 in 6.2 mi East 23.0 mph - N/A   Scattered Clouds
6:00 PM 84.2 °F 92.3 °F 75.2 °F 74% 29.86 in 6.2 mi East 20.7 mph - N/A   Partly Cloudy
7:00 PM 82.4 °F 88.2 °F 73.4 °F 74% 29.89 in 6.2 mi North - - N/A   Partly Cloudy
8:00 PM 82 °F - 74 °F 70% 29.92 in 16 mi East 18.4 mph - -   Partly Cloudy
8:00 PM 82.4 °F 88.2 °F 73.4 °F 74% 29.92 in 6.2 mi East 18.4 mph - N/A   Partly Cloudy
9:00 PM 82.4 °F 89.5 °F 75.2 °F 79% 29.92 in 6.2 mi North - - N/A   Partly Cloudy
10:00 PM 82.4 °F 89.5 °F 75.2 °F 79% 29.95 in - North - - N/A   Unknown
11:00 PM 82 °F - 76 °F 76%  in - Calm Calm - -   Clear
11:00 PM 82.4 °F 89.5 °F 75.2 °F 79% 29.95 in - North - - N/A   Unknown